FW5702 Weather Reports


time (UTC)temp
C
wind
direction
speed
KPH
gust
KPH
rain 1hr
cm
rain 24hr
cm
rain mn
cm
humidity
%
barometer
mb
20260504190059 16 306 14.5 20.9 0.00 0.00 0.00 27 1009.0
20260504184605 15 263 6.4 16.1 0.00 0.00 0.00 27 1009.3
20260504183058 14 303 1.6 14.5 0.00 0.00 0.00 32 1009.7
20260504181559 16 319 11.3 19.3 0.00 0.00 0.00 30 1009.9
20260504180055 15 320 1.6 17.7 0.00 0.00 0.00 41 1010.0
20260504174554 15 0 6.4 16.1 0.00 0.00 0.00 35 1010.3
20260504173054 14 0 3.2 6.4 0.00 0.00 0.00 33 1010.6
20260504171555 13 51 0.0 6.4 0.00 0.00 0.00 39 1010.9
20260504081559 -1 0 0.0 0.0 0.00 0.00 0.00 81 1011.4
20260504070104 -1 0 0.0 0.0 0.00 0.00 0.00 82 1011.9
20260504060108 0 0 0.0 0.0 0.00 0.00 0.00 61 1011.9
20260504050107 1 0 0.0 3.2 0.00 0.00 0.00 60 1012.0
20260504044605 2 0 0.0 1.6 0.00 0.00 0.00 66 1012.1
20260504043059 2 0 1.6 4.8 0.00 0.00 0.00 58 1012.1
20260504041603 3 0 0.0 3.2 0.00 0.00 0.00 54 1012.2
20260504034615 6 0 0.0 4.8 0.00 0.00 0.00 59 1012.1
20260504033112 6 288 0.0 3.2 0.00 0.00 0.00 54 1011.8
20260504031555 7 288 0.0 6.4 0.00 0.00 0.00 49 1011.9
20260504030056 7 0 0.0 6.4 0.00 0.00 0.00 38 1011.8
20260504024556 8 288 0.0 3.2 0.00 0.00 0.00 35 1011.6
20260504023056 10 0 0.0 4.8 0.00 0.00 0.00 18 1011.5
20260504021556 11 0 0.0 4.8 0.00 0.00 0.00 28 1011.4
20260504020057 12 288 1.6 4.8 0.00 0.00 0.00 22 1011.4
20260504014616 13 288 3.2 8.0 0.00 0.00 0.00 12 1011.4
20260504013104 15 207 1.6 14.5 0.00 0.00 0.00 18 1011.4
20260504011559 16 261 6.4 24.1 0.00 0.00 0.00 13 1011.6
20260504010059 17 264 8.0 14.5 0.00 0.00 0.00 13 1011.3
20260504004555 17 248 8.0 17.7 0.00 0.00 0.00 15 1011.4
20260504003100 17 268 6.4 24.1 0.00 0.00 0.00 15 1011.6
20260504001609 17 287 9.7 20.9 0.00 0.00 0.00 13 1011.6
20260504000057 17 247 11.3 25.7 0.00 0.00 0.00 12 1011.6
20260503234555 18 273 19.3 27.4 0.00 0.00 0.00 10 1011.7
20260503233054 18 269 11.3 30.6 0.00 0.00 0.00 12 1011.8
20260503231558 18 233 14.5 29.0 0.00 0.00 0.00 10 1011.8
20260503230059 18 234 11.3 29.0 0.00 0.00 0.00 14 1011.8
20260503224554 19 298 14.5 29.0 0.00 0.00 0.00 12 1011.6
20260503223058 18 272 20.9 33.8 0.00 0.00 0.00 14 1011.8
20260503221553 19 242 14.5 33.8 0.00 0.00 0.00 12 1012.0
20260503214554 18 289 14.5 32.2 0.00 0.00 0.00 14 1012.7
20260503213107 18 284 16.1 32.2 0.00 0.00 0.00 19 1012.9
20260503211555 19 288 11.3 27.4 0.00 0.00 0.00 9 1013.1
20260503204556 18 296 12.9 32.2 0.00 0.00 0.00 18 1013.5
20260503203104 18 284 14.5 32.2 0.00 0.00 0.00 17 1013.9
20260503201558 18 294 12.9 30.6 0.00 0.00 0.00 17 1014.0
20260503194555 18 248 16.1 30.6 0.00 0.00 0.00 16 1014.4
20260503193111 18 262 20.9 40.2 0.00 0.00 0.00 18 1014.5
20260503191603 18 257 16.1 38.6 0.00 0.00 0.00 18 1014.7